STARLINK-11600, 63114

Orbit data source: Space-Track

STARLINK-11600, 63114 is a payload satellite owned by SpaceX/Seattle (US) in LEO that was launched on Thu, 27 Feb 2025 UTC via an FALCON 9 launch vehicle from the Air Force Eastern Test Range (AFETR). Payload-class satellites include a variety of spacecraft equipped with specific instruments for various scientific and technological missions. These include communications satellites like Starlink; space stations such as the ISS; scientific satellites like the Hubble; Earth observation satellites from companies like Planet Labs, Umbra, and HawkEye 360; GPS; miniature CubeSats for education and research; and military/defense satellites.

Loading next visibility...
Identifier
63114, 2025-039L
Orbit
LEO
Last TLE update
23 hours ago
Origin
Manufacturer
SpaceX/Seattle
Mission
Operational Commercial Communications
Bus & Motor
STARLINK V2M, Unknown motor
Mass
730 kg wet, ~700 kg dry
Launch date (UTC)
2025-02-27 (4 months ago)
Launch vehicle
FALCON 9
Launch site
Air Force Eastern Test Range (AFETR)
Object type
Payload
Rocket body
Debris
Shape & HBR
Box + 2 Pan, 29 m
Radar Cross Section
36.964 m², Large (>1 m²)

Expand to show TLE details & history

TLE from 23 hours ago
0 STARLINK-11600
1 63114U 25039L   25181.43245741  .00172868  00000-0  13231-2 0  9995
2 63114  42.9999 317.2179 0003700 292.9676  67.0801 15.70830899 19945
Epoch: 2025-06-30T10:22Z
TLE epoch observation values (Epoch: 2025-06-30T10:22:44.32Z)
Latitude
-0.00001°
Longitude
-117.20912°
Altitude
355.323 km
Speed
7.698 km/s
True Right ascension
21h 08m 52s
True Declination
0° 00' 00"
Sunlit
Object was in full shadow at epoch
Visualization orbit readout
Latitude
-42.73725°
Longitude
156.9655°
Altitude
366.471 km
Speed
7.691 km/s
Apparent Right ascension
12h 01m 10s
Apparent Declination
-54° 35' 48"
Sunlit
Object is in full shadow
Visualization observer readout
Local Sidereal Time
20:33:08
Azimuth
229.039° WSW
Elevation
-52.799°
Doppler factor
1
Orbital elements
Apogee altitude
360.995 km
Perigee altitude
356.01 km
Semi-major axis
6,736.64 km
Eccentricity
0.00037
Inclination
42.9999°
RAAN
317.2179°
Arg. of periapsis
292.9676°
True anomaly
Unknown
Mean anomaly
67.0801°
Eccentric anomaly
Unknown
Mean motion
3.92535 °/min
Orbital period
91.71 mins
BSTAR
0.0013231
Loading maneuver chart data...
Loading SW <> Apogee altitude chart data...
Loading historical data...
Loading historical data...
Loading historical data...
Loading historical data...
Loading historical data...
Loading historical data...
Loading historical data...

STARLINK-11600 Visibility forecast

Observer location: undefined°, undefined°

Span
Click to sort rows by Start time (UTC) header in descending order
Start Az.
Max El. time (UTC)
Max El. Az.
Max El.
End time (UTC)
End Az.
4 mins2025-07-01 12:32:56.302Z222.486° SW2025-07-01 12:34:56.302Z152.478° SSE35.21°2025-07-01 12:36:56.302Z85.797° E
4 mins2025-07-01 15:45:56.302Z304.127° NW2025-07-01 15:46:56.302Z338.929° N35.583°2025-07-01 15:49:56.302Z84.672° E
4 mins2025-07-01 17:21:56.302Z269.075° W2025-07-01 17:22:56.302Z238.615° WSW33.992°2025-07-01 17:25:56.302Z131.073° SE
|